FW7092 Weather Reports


time (UTC)temp
C
wind
direction
speed
KPH
gust
KPH
rain 1hr
cm
rain 24hr
cm
rain mn
cm
humidity
%
barometer
mb
20260506201156 13 325 6.4 9.7 0.00 0.38 0.38 44 1015.4
20260506200653 12 255 3.2 4.8 0.00 0.38 0.38 44 1015.5
20260506200150 12 259 3.2 12.9 0.00 0.38 0.38 49 1015.5
20260506195647 12 306 8.0 12.9 0.00 0.38 0.38 45 1015.4
20260506195143 12 267 8.0 12.9 0.00 0.38 0.38 46 1015.5
20260506194641 12 293 3.2 8.0 0.00 0.38 0.38 45 1015.4
20260506194137 12 290 6.4 11.3 0.00 0.38 0.38 45 1015.2
20260506193635 12 269 3.2 9.7 0.00 0.38 0.38 46 1015.5
20260506193132 12 248 8.0 12.9 0.00 0.38 0.38 46 1015.6
20260506192628 12 315 6.4 12.9 0.00 0.38 0.38 46 1015.6
20260506192124 12 246 6.4 12.9 0.00 0.38 0.38 45 1015.6
20260506191621 12 250 8.0 11.3 0.00 0.38 0.38 49 1015.7
20260506191117 12 256 16.1 17.7 0.00 0.38 0.38 46 1015.6
20260506190615 12 259 8.0 14.5 0.00 0.38 0.38 45 1015.5
20260506190111 12 252 12.9 16.1 0.00 0.38 0.38 47 1015.5
20260506185609 12 20 14.5 17.7 0.00 0.38 0.38 46 1015.4
20260506185105 12 258 12.9 22.5 0.00 0.38 0.38 46 1015.6
20260506184602 12 230 3.2 11.3 0.00 0.38 0.38 44 1015.4
20260506184100 12 307 9.7 14.5 0.00 0.38 0.38 44 1015.2
20260506183555 12 283 6.4 14.5 0.00 0.38 0.38 49 1015.4
20260506183052 13 252 4.8 8.0 0.00 0.38 0.38 48 1015.2
20260506182550 12 225 4.8 11.3 0.00 0.38 0.38 47 1015.2
20260506182047 13 261 8.0 16.1 0.00 0.38 0.38 44 1015.0
20260506181545 13 317 9.7 12.9 0.00 0.38 0.38 45 1015.2
20260506181041 13 236 6.4 9.7 0.00 0.38 0.38 44 1014.9
20260506180538 13 246 8.0 11.3 0.00 0.38 0.38 45 1015.1
20260506180034 13 337 4.8 20.9 0.00 0.38 0.38 49 1015.1
20260506175531 13 235 8.0 14.5 0.00 0.38 0.38 48 1014.9
20260506175027 12 258 11.3 14.5 0.00 0.38 0.38 54 1015.1
20260506174526 13 275 17.7 22.5 0.00 0.38 0.38 47 1015.0
20260506174022 12 340 4.8 11.3 0.00 0.38 0.38 49 1015.1
20260506173520 13 229 3.2 9.7 0.00 0.38 0.38 56 1015.2
20260506173016 12 235 11.3 14.5 0.00 0.38 0.38 48 1015.2
20260506172514 12 255 12.9 14.5 0.00 0.38 0.38 48 1015.2
20260506172010 12 246 14.5 17.7 0.00 0.38 0.38 50 1015.2
20260506171507 12 266 4.8 4.8 0.00 0.38 0.38 50 1015.5
20260506171005 12 331 8.0 17.7 0.00 0.38 0.38 50 1015.5
20260506170502 12 291 16.1 22.5 0.00 0.38 0.38 50 1015.6
20260506170000 13 245 12.9 17.7 0.00 0.38 0.38 50 1015.6
20260506165458 13 256 9.7 16.1 0.00 0.38 0.38 54 1015.6
20260506164954 13 247 6.4 11.3 0.00 0.38 0.38 50 1015.6
20260506164450 12 248 6.4 12.9 0.00 0.38 0.38 51 1015.8
20260506163948 12 298 6.4 14.5 0.00 0.38 0.38 50 1015.7
20260506163443 12 38 4.8 9.7 0.00 0.38 0.38 52 1015.6
20260506162938 12 247 6.4 17.7 0.00 0.38 0.38 53 1015.7
20260506162436 12 291 6.4 16.1 0.00 0.38 0.38 47 1015.6
20260506161933 12 260 4.8 16.1 0.00 0.38 0.38 55 1015.5
20260506161432 12 273 3.2 14.5 0.00 0.38 0.38 55 1015.5
20260506160929 12 57 8.0 14.5 0.00 0.38 0.38 49 1015.7
20260506160426 12 348 3.2 12.9 0.00 0.38 0.38 50 1015.5
20260506155923 13 230 4.8 9.7 0.00 0.38 0.38 50 1015.6
20260506155420 12 349 1.6 9.7 0.00 0.38 0.38 49 1015.4
20260506153542 12 301 4.8 11.3 0.00 0.38 0.38 48 1015.4
20260506153040 12 292 8.0 14.5 0.00 0.38 0.38 49 1015.0
20260506152537 12 319 4.8 11.3 0.00 0.38 0.38 46 1015.1
20260506152035 12 325 3.2 11.3 0.00 0.38 0.38 48 1015.1
20260506151532 12 69 1.6 9.7 0.00 0.38 0.38 46 1015.4
20260506151029 12 336 4.8 8.0 0.00 0.38 0.38 51 1015.2
20260506150526 11 196 4.8 12.9 0.00 0.38 0.38 48 1015.0
20260506150023 12 267 8.0 11.3 0.00 0.38 0.38 46 1014.9
20260506145519 12 245 6.4 9.7 0.00 0.38 0.38 49 1014.7
20260506145017 12 302 4.8 12.9 0.00 0.38 0.38 50 1014.8
20260506144513 12 350 3.2 12.9 0.00 0.38 0.38 54 1014.8
20260506144011 12 310 4.8 9.7 0.00 0.38 0.38 51 1014.6
20260506143508 11 259 1.6 4.8 0.00 0.38 0.38 54 1014.7
20260506143007 11 204 1.6 9.7 0.00 0.38 0.38 56 1014.9
20260506142504 11 331 8.0 12.9 0.00 0.38 0.38 56 1014.7
20260506142002 11 335 9.7 12.9 0.00 0.38 0.38 58 1014.6
20260506141459 11 74 3.2 11.3 0.00 0.38 0.38 58 1014.6
20260506140958 11 312 4.8 9.7 0.00 0.38 0.38 58 1014.5
20260506140454 11 324 4.8 11.3 0.00 0.38 0.38 58 1014.5
20260506135951 11 348 8.0 11.3 0.00 0.38 0.38 58 1014.6
20260506135449 11 19 4.8 9.7 0.00 0.38 0.38 61 1014.4
20260506134944 11 306 1.6 4.8 0.00 0.38 0.38 61 1014.4
20260506134440 11 205 1.6 3.2 0.00 0.38 0.38 62 1014.5
20260506133937 11 336 3.2 8.0 0.00 0.38 0.38 60 1014.4
20260506133435 11 243 1.6 4.8 0.00 0.38 0.38 63 1014.4
20260506132931 11 316 6.4 8.0 0.00 0.38 0.38 62 1014.3
20260506132428 11 257 3.2 4.8 0.00 0.38 0.38 67 1014.2
20260506131926 11 236 3.2 8.0 0.00 0.38 0.38 66 1014.0
20260506131422 10 9 1.6 8.0 0.00 0.38 0.38 70 1014.0
20260506130919 10 276 1.6 8.0 0.00 0.38 0.38 70 1013.9
20260506130416 10 252 1.6 9.7 0.00 0.38 0.38 75 1013.9
20260506125914 10 200 0.0 4.8 0.00 0.38 0.38 74 1014.0
20260506125412 9 232 1.6 8.0 0.00 0.38 0.38 75 1013.8
20260506124910 9 8 4.8 8.0 0.00 0.38 0.38 75 1013.9
20260506124407 9 253 1.6 9.7 0.00 0.38 0.38 80 1013.8
20260506123905 8 286 3.2 9.7 0.00 0.38 0.38 82 1013.8
20260506123403 8 284 3.2 8.0 0.00 0.38 0.38 82 1013.7
20260506122900 8 250 1.6 1.6 0.00 0.38 0.38 87 1013.6
20260506122356 7 233 0.0 3.2 0.00 0.38 0.38 89 1013.6
20260506121855 7 258 1.6 3.2 0.00 0.38 0.38 90 1013.5
20260506121351 7 269 3.2 3.2 0.00 0.38 0.38 91 1013.4
20260506120848 7 246 1.6 4.8 0.00 0.38 0.38 91 1013.3
20260506120346 7 247 1.6 3.2 0.00 0.38 0.38 93 1013.1
20260506115843 7 241 3.2 4.8 0.00 0.38 0.38 93 1013.3
20260506115341 7 249 3.2 4.8 0.00 0.38 0.38 94 1013.2
20260506114839 7 250 1.6 3.2 0.00 0.38 0.38 95 1013.2
20260506114336 7 239 3.2 3.2 0.00 0.38 0.38 95 1013.3
20260506113835 7 246 4.8 4.8 0.00 0.38 0.38 95 1012.9
20260506113332 7 240 4.8 4.8 0.00 0.38 0.38 95 1012.9
20260506112829 7 240 3.2 8.0 0.00 0.38 0.38 95 1013.0
20260506112326 7 235 3.2 4.8 0.00 0.38 0.38 95 1013.0
20260506111823 6 234 4.8 4.8 0.00 0.38 0.38 96 1012.9
20260506111322 6 239 4.8 4.8 0.00 0.38 0.38 96 1012.8
20260506110819 6 230 3.2 4.8 0.00 0.38 0.38 96 1012.9
20260506110315 6 237 4.8 4.8 0.00 0.38 0.38 96 1012.8
20260506105812 6 247 3.2 4.8 0.00 0.38 0.38 95 1012.3
20260506105309 6 234 4.8 4.8 0.00 0.38 0.38 95 1012.6
20260506104806 6 248 3.2 3.2 0.00 0.38 0.38 96 1012.2
20260506104304 6 238 3.2 3.2 0.00 0.38 0.38 96 1012.1
20260506103801 6 234 3.2 4.8 0.00 0.38 0.38 96 1011.9
20260506103259 6 250 3.2 3.2 0.00 0.38 0.38 96 1012.0
20260506102756 6 242 1.6 3.2 0.00 0.38 0.38 96 1011.8
20260506102254 6 247 1.6 3.2 0.00 0.38 0.38 96 1011.8
20260506101751 6 241 1.6 4.8 0.00 0.38 0.38 96 1011.9
20260506101247 6 255 3.2 4.8 0.00 0.38 0.38 95 1011.8
20260506100745 6 240 4.8 8.0 0.00 0.38 0.38 96 1012.0
20260506100243 6 265 4.8 8.0 0.00 0.38 0.38 96 1012.1
20260506095741 6 244 3.2 4.8 0.00 0.38 0.38 97 1012.0
20260506095238 6 261 6.4 8.0 0.00 0.38 0.38 96 1011.8
20260506094734 6 238 4.8 8.0 0.00 0.38 0.38 96 1011.9
20260506094233 6 241 4.8 8.0 0.00 0.38 0.38 96 1012.0
20260506093731 6 237 4.8 4.8 0.00 0.38 0.38 96 1011.8
20260506093228 6 236 3.2 3.2 0.00 0.38 0.38 96 1011.4
20260506092726 6 219 3.2 3.2 0.00 0.38 0.38 96 1011.5
20260506092223 6 229 1.6 1.6 0.00 0.38 0.38 96 1011.6
20260506091721 6 215 3.2 3.2 0.00 0.38 0.38 96 1011.6
20260506091218 6 232 3.2 4.8 0.00 0.38 0.38 96 1011.9
20260506090716 6 226 3.2 4.8 0.00 0.38 0.38 96 1012.1
20260506090212 6 235 3.2 4.8 0.00 0.38 0.38 96 1012.0
20260506085709 6 234 3.2 3.2 0.00 0.38 0.38 96 1012.1
20260506085205 6 227 1.6 3.2 0.00 0.38 0.38 96 1011.6
20260506084702 6 217 3.2 3.2 0.00 0.38 0.38 96 1012.0
20260506084158 6 249 3.2 4.8 0.00 0.38 0.38 96 1011.9
20260506083655 6 217 1.6 3.2 0.00 0.38 0.38 96 1011.9
20260506083153 6 214 3.2 3.2 0.00 0.38 0.38 95 1011.8
20260506082650 6 212 4.8 4.8 0.18 0.38 0.38 95 1011.8
20260506082145 6 234 3.2 3.2 0.18 0.38 0.38 95 1011.8
20260506081643 6 224 1.6 1.6 0.00 0.36 0.36 96 1011.8
20260506081141 6 225 1.6 1.6 0.00 0.36 0.36 95 1011.4
20260506080638 6 216 3.2 3.2 0.00 0.36 0.36 96 1011.4
20260506080135 6 217 1.6 3.2 0.00 0.36 0.36 96 1011.6
20260506073119 6 252 4.8 4.8 0.00 0.36 0.36 95 1011.9
20260506072615 6 241 3.2 3.2 0.18 0.36 0.36 96 1011.9
20260506072114 6 239 4.8 8.0 0.18 0.36 0.36 96 1012.1
20260506071611 7 234 3.2 4.8 0.00 0.33 0.33 97 1012.2
20260506071108 7 245 4.8 4.8 0.00 0.33 0.33 97 1012.0
20260506070605 7 239 1.6 3.2 0.00 0.33 0.33 98 1011.9
20260506062039 7 246 1.6 3.2 0.18 0.23 0.23 98 1012.1
20260506061535 7 231 0.0 1.6 0.18 0.23 0.23 98 1012.3
20260506061033 7 235 0.0 0.0 0.00 0.20 0.20 98 1012.1
20260506060531 7 235 0.0 0.0 0.00 0.20 0.20 98 1012.2
20260506051000 7 239 0.0 0.0 0.18 0.18 0.18 98 1012.3
20260506050458 7 237 0.0 0.0 0.00 0.15 0.15 98 1012.1
20260506044948 7 331 1.6 1.6 0.18 0.13 0.13 98 1012.2
20260506044446 7 230 0.0 1.6 0.18 0.13 0.13 98 1012.0
20260506043943 7 245 1.6 1.6 0.18 0.10 0.10 98 1012.0
20260506043440 7 222 1.6 3.2 0.18 0.10 0.10 98 1012.0
20260506042938 7 226 3.2 4.8 0.18 0.05 0.05 98 1012.1
20260506042437 8 301 1.6 3.2 0.18 0.05 0.05 98 1012.0
20260506041935 8 254 0.0 1.6 0.00 0.03 0.03 98 1012.2
20260506041432 8 232 0.0 0.0 0.18 0.03 0.03 98 1012.0
20260506040929 8 253 1.6 3.2 0.00 0.00 0.00 98 1012.1
20260506040427 8 247 4.8 8.0 0.00 0.00 0.00 98 1011.9
20260506035923 8 233 1.6 3.2 0.00 0.81 0.81 99 1012.0
20260506035420 8 222 1.6 1.6 0.00 0.81 0.81 99 1011.9
20260506034917 8 226 1.6 3.2 0.00 0.81 0.81 99 1012.1
20260506034414 8 216 1.6 3.2 0.00 0.81 0.81 99 1011.9
20260506033911 8 216 1.6 3.2 0.00 0.81 0.81 99 1011.9
20260506033408 8 210 3.2 3.2 0.00 0.81 0.81 99 1011.7
20260506032905 8 216 1.6 3.2 0.00 0.81 0.81 99 1011.9
20260506032402 8 216 3.2 3.2 0.00 0.81 0.81 98 1011.8
20260506031858 8 219 3.2 3.2 0.00 0.81 0.81 98 1012.1
20260506031356 8 214 3.2 3.2 0.18 0.81 0.81 98 1011.7
20260506030854 8 212 1.6 3.2 0.18 0.81 0.81 98 1012.2
20260506030352 8 222 4.8 4.8 0.00 0.79 0.79 98 1012.2
20260506025848 8 219 3.2 4.8 0.00 0.79 0.79 98 1012.0
20260506025345 8 226 3.2 3.2 0.00 0.79 0.79 98 1012.1
20260506024842 8 212 1.6 1.6 0.00 0.79 0.79 98 1012.1
20260506024338 8 218 1.6 4.8 0.00 0.79 0.79 98 1012.1
20260506023835 8 215 3.2 3.2 0.00 0.79 0.79 98 1012.1
20260506023332 8 214 4.8 4.8 0.00 0.79 0.79 98 1012.1
20260506022828 8 225 3.2 3.2 0.00 0.79 0.79 98 1012.1
20260506022326 8 222 3.2 3.2 0.18 0.79 0.79 98 1012.1
20260506021824 8 225 1.6 3.2 0.18 0.79 0.79 98 1012.0
20260506021320 8 212 3.2 4.8 0.00 0.74 0.74 98 1012.1
20260506020817 8 211 3.2 3.2 0.00 0.74 0.74 98 1012.2
20260506020315 8 218 4.8 8.0 0.18 0.74 0.74 98 1012.3
20260506015813 8 232 4.8 8.0 0.18 0.74 0.74 98 1012.2
20260506015310 8 206 4.8 4.8 0.00 0.71 0.71 98 1012.0
20260506014806 8 214 4.8 8.0 0.18 0.71 0.71 98 1012.0
20260506014304 8 233 4.8 4.8 0.18 0.71 0.71 97 1012.0
20260506013800 8 217 3.2 4.8 0.00 0.69 0.69 97 1011.8
20260506013257 8 212 4.8 4.8 0.00 0.69 0.69 97 1011.7
20260506012754 8 228 4.8 4.8 0.00 0.69 0.69 97 1011.8
20260506012251 8 217 4.8 4.8 0.00 0.69 0.69 97 1011.4
20260506011748 8 211 4.8 8.0 0.00 0.69 0.69 97 1011.6
20260506011244 8 207 4.8 4.8 0.00 0.69 0.69 97 1011.6
20260506010743 8 227 4.8 4.8 0.18 0.69 0.69 97 1011.7
20260506010240 8 215 4.8 8.0 0.18 0.69 0.69 97 1011.4
20260506005737 8 216 3.2 4.8 0.00 0.66 0.66 97 1011.4
20260506005233 8 215 4.8 4.8 0.00 0.66 0.66 97 1011.4
20260506004729 8 232 3.2 4.8 0.00 0.66 0.66 97 1011.4
20260506004227 8 225 4.8 4.8 0.00 0.66 0.66 97 1011.4
20260506003723 8 213 1.6 4.8 0.00 0.66 0.66 96 1011.4
20260506003220 8 223 1.6 3.2 0.00 0.66 0.66 96 1011.4
20260506002715 8 230 3.2 3.2 0.00 0.66 0.66 96 1011.6
20260506002212 8 230 4.8 8.0 0.18 0.66 0.66 96 1011.4
20260506001707 8 223 4.8 8.0 0.00 0.64 0.64 96 1011.5
20260506001206 8 211 4.8 8.0 0.00 0.64 0.64 96 1011.5
20260506000702 8 226 4.8 8.0 0.18 0.64 0.64 96 1011.3
20260506000200 8 225 4.8 8.0 0.18 0.64 0.64 95 1011.5
20260505235657 8 211 4.8 8.0 0.00 0.61 0.61 95 1011.3
20260505235155 8 215 6.4 8.0 0.00 0.61 0.61 95 1011.3
20260505234651 8 216 6.4 8.0 0.00 0.61 0.61 95 1011.3
20260505234148 8 208 4.8 4.8 0.00 0.61 0.61 95 1011.3
20260505233645 9 235 6.4 8.0 0.00 0.61 0.61 94 1011.4
20260505233143 9 215 4.8 4.8 0.18 0.61 0.61 94 1011.2
20260505232640 9 237 4.8 4.8 0.18 0.61 0.61 94 1011.2
20260505232138 9 230 4.8 8.0 0.00 0.56 0.56 94 1011.2
20260505231634 9 229 6.4 8.0 0.00 0.56 0.56 93 1011.2
20260505231133 9 233 3.2 4.8 0.00 0.56 0.56 93 1011.4
20260505230631 9 214 3.2 3.2 0.18 0.56 0.56 92 1011.1
20260505230127 9 241 1.6 3.2 0.18 0.56 0.56 91 1011.0
20260505225623 9 234 1.6 3.2 0.00 0.53 0.53 92 1011.2
20260505225120 10 226 1.6 3.2 0.00 0.53 0.53 92 1011.1
20260505224616 9 209 4.8 4.8 0.18 0.53 0.53 91 1011.1
20260505224114 10 215 1.6 1.6 0.18 0.53 0.53 91 1011.0
20260505223611 10 220 1.6 3.2 0.00 0.51 0.51 91 1010.9
20260505223107 10 225 0.0 1.6 0.00 0.51 0.51 89 1011.1
20260505222603 10 211 4.8 4.8 0.18 0.51 0.51 89 1011.2
20260505222059 10 229 1.6 1.6 0.18 0.51 0.51 90 1011.1
20260505221557 10 235 1.6 1.6 0.00 0.48 0.48 90 1011.1
20260505221053 10 245 4.8 4.8 0.18 0.48 0.48 89 1011.2
20260505220550 10 258 4.8 4.8 0.18 0.48 0.48 90 1011.3
20260505220048 10 235 4.8 4.8 0.00 0.46 0.46 91 1011.0
20260505215546 10 237 1.6 1.6 0.00 0.46 0.46 91 1011.3
20260505215044 10 221 0.0 0.0 0.00 0.46 0.46 92 1011.1
20260505214542 10 259 1.6 1.6 0.18 0.46 0.46 92 1011.2
20260505214038 10 240 1.6 3.2 0.36 0.46 0.46 92 1011.1
20260505213536 10 297 3.2 3.2 0.36 0.43 0.43 92 1010.8
20260505213032 10 283 3.2 4.8 0.36 0.38 0.38 92 1010.6
20260505212528 10 260 1.6 4.8 0.36 0.36 0.36 93 1010.9
20260505212026 10 298 1.6 3.2 0.36 0.33 0.33 92 1010.8
20260505211523 10 321 1.6 3.2 0.36 0.30 0.30 92 1011.0
20260505211020 10 273 1.6 3.2 0.18 0.23 0.23 92 1011.2
20260505210516 10 11 3.2 4.8 0.18 0.20 0.20 91 1011.1
20260505210014 10 336 3.2 8.0 0.36 0.18 0.18 91 1011.0
20260505205512 10 298 3.2 8.0 0.18 0.15 0.15 92 1011.1
20260505205008 10 278 3.2 4.8 0.00 0.13 0.13 92 1010.8
20260505204506 10 254 1.6 8.0 0.18 0.13 0.13 92 1010.8
20260505204003 10 251 4.8 4.8 0.00 0.10 0.10 91 1011.0
20260505203500 10 0 3.2 11.3 0.18 0.10 0.10 91 1011.1
20260505202956 10 346 4.8 9.7 0.18 0.10 0.10 91 1011.2
20260505202453 10 270 6.4 9.7 0.00 0.05 0.05 91 1011.1
20260505201949 10 226 3.2 8.0 0.18 0.05 0.05 91 1010.9